This is the latest recevied weather packets stored in our database for station/object EA7URS-13. If no packets are shown the sender has not sent any weather packets the latest 10 day(s).
| Time | Temp. | Humidity | Pressure | Rain* | Wind** | Luminosity | Snow |
|---|---|---|---|---|---|---|---|
| 1788170265 | 30° C | 35% | 1010.8 hPa | 0 mm | - | 536 W/m² | - |
| 1788169964 | 30.56° C | 36% | 1010.5 hPa | 0 mm | - | 516 W/m² | - |
| 1788169663 | 30.56° C | 36% | 1010.5 hPa | 0 mm | - | 516 W/m² | - |
| 1788169362 | 30° C | 36% | 1010.5 hPa | 0 mm | - | 358 W/m² | - |
| 1788169062 | 30° C | 36% | 1010.5 hPa | 0 mm | - | 358 W/m² | - |
| 1788168760 | 28.89° C | 39% | 1010.6 hPa | 0 mm | - | 472 W/m² | - |
| 1788168459 | 28.89° C | 39% | 1010.6 hPa | 0 mm | - | 472 W/m² | - |
| 1788168158 | 28.33° C | 40% | 1010.4 hPa | 0 mm | - | 447 W/m² | - |
| 1788167857 | 28.33° C | 40% | 1010.4 hPa | 0 mm | - | 447 W/m² | - |
| 1788167556 | 27.78° C | 40% | 1010.7 hPa | 0 mm | - | 424 W/m² | - |
| 1788167255 | 27.78° C | 40% | 1010.7 hPa | 0 mm | - | 424 W/m² | - |
| 1788166954 | 27.78° C | 40% | 1010.6 hPa | 0 mm | - | 395 W/m² | - |
| 1788166653 | 27.78° C | 40% | 1010.6 hPa | 0 mm | - | 395 W/m² | - |
| 1788166351 | 27.22° C | 42% | 1010.5 hPa | 0 mm | - | 367 W/m² | - |
| 1788166050 | 27.22° C | 42% | 1010.5 hPa | 0 mm | - | 367 W/m² | - |
| 1788165749 | 26.67° C | 43% | 1010.8 hPa | 0 mm | - | 335 W/m² | - |
| 1788165448 | 26.67° C | 43% | 1010.8 hPa | 0 mm | - | 335 W/m² | - |
| 1788165147 | 26.67° C | 44% | 1010.6 hPa | 0 mm | - | 309 W/m² | - |
| 1788164846 | 26.67° C | 44% | 1010.6 hPa | 0 mm | - | 309 W/m² | - |
| 1788164559 | 26.11° C | 45% | 1010.5 hPa | 0 mm | - | 281 W/m² | - |
| 1788164244 | 26.11° C | 45% | 1010.5 hPa | 0 mm | - | 281 W/m² | - |
| 1788163943 | 26.11° C | 44% | 1010.4 hPa | 0 mm | - | 252 W/m² | - |
| 1788163642 | 26.11° C | 44% | 1010.4 hPa | 0 mm | - | 252 W/m² | - |
| 1788163341 | 26.11° C | 46% | 1010.6 hPa | 0 mm | - | 222 W/m² | - |
| 1788163040 | 26.11° C | 46% | 1010.6 hPa | 0 mm | - | 222 W/m² | - |
* Rain latest hour (hover to see other rain measurements)
** Current wind speed in m/s (hover to see current wind gust speed)